TimeCDT,TemperatureF,Dew PointF,Humidity,Sea Level PressureIn,VisibilityMPH,Wind Direction,Wind SpeedMPH,Gust SpeedMPH,PrecipitationIn,Events,Conditions,WindDirDegrees,DateUTC
12:56 AM,54.0,43.0,66,30.17,10.0,North,10.4,-,N/A,,Clear,360,2014-03-30 05:56:00
1:56 AM,52.0,42.1,69,30.17,10.0,North,10.4,-,N/A,,Clear,350,2014-03-30 06:56:00
2:56 AM,50.0,42.1,74,30.15,10.0,North,9.2,-,N/A,,Clear,360,2014-03-30 07:56:00
3:56 AM,48.0,42.1,80,30.14,10.0,North,6.9,-,N/A,,Clear,350,2014-03-30 08:56:00
4:56 AM,46.9,41.0,80,30.16,10.0,North,9.2,-,N/A,,Clear,360,2014-03-30 09:56:00
5:56 AM,46.0,39.9,79,30.17,10.0,North,8.1,-,N/A,,Clear,350,2014-03-30 10:56:00
6:56 AM,45.0,39.9,82,30.20,10.0,NNW,11.5,-,N/A,,Clear,340,2014-03-30 11:56:00
7:56 AM,46.9,39.9,77,30.22,10.0,NNW,12.7,-,N/A,,Clear,340,2014-03-30 12:56:00
8:56 AM,50.0,41.0,71,30.23,10.0,North,11.5,19.6,N/A,,Clear,350,2014-03-30 13:56:00
9:56 AM,54.0,39.9,59,30.24,10.0,North,12.7,20.7,N/A,,Clear,360,2014-03-30 14:56:00
10:56 AM,60.1,37.9,44,30.23,10.0,NNE,16.1,19.6,N/A,,Clear,20,2014-03-30 15:56:00
11:56 AM,63.0,37.9,40,30.22,10.0,North,10.4,-,N/A,,Mostly Cloudy,10,2014-03-30 16:56:00
12:56 PM,66.0,39.0,37,30.20,10.0,North,9.2,-,N/A,,Mostly Cloudy,360,2014-03-30 17:56:00
1:56 PM,68.0,39.0,35,30.18,10.0,Variable,3.5,-,N/A,,Mostly Cloudy,0,2014-03-30 18:56:00
2:56 PM,66.0,43.0,43,30.15,10.0,Calm,Calm,-,N/A,,Mostly Cloudy,0,2014-03-30 19:56:00
3:56 PM,71.1,37.9,30,30.13,10.0,WNW,5.8,-,N/A,,Mostly Cloudy,300,2014-03-30 20:56:00
4:56 PM,70.0,35.1,28,30.12,10.0,NW,8.1,-,N/A,,Mostly Cloudy,320,2014-03-30 21:56:00
5:56 PM,69.1,35.1,29,30.13,10.0,North,6.9,-,N/A,,Mostly Cloudy,350,2014-03-30 22:56:00
6:56 PM,63.0,41.0,45,30.14,10.0,West,3.5,-,N/A,,Mostly Cloudy,260,2014-03-30 23:56:00
7:56 PM,54.0,48.0,80,30.14,10.0,Calm,Calm,-,N/A,,Mostly Cloudy,0,2014-03-31 00:56:00
8:30 PM,53.1,48.9,86,30.14,10.0,Calm,Calm,-,N/A,,Scattered Clouds,0,2014-03-31 01:30:00
8:56 PM,52.0,48.9,89,30.15,10.0,Calm,Calm,-,N/A,,Clear,0,2014-03-31 01:56:00
9:56 PM,55.0,48.9,80,30.16,10.0,WNW,5.8,-,N/A,,Clear,300,2014-03-31 02:56:00
10:56 PM,48.9,48.0,97,30.16,10.0,Calm,Calm,-,N/A,,Clear,0,2014-03-31 03:56:00
11:56 PM,48.0,46.9,96,30.15,10.0,NNW,3.5,-,N/A,,Clear,330,2014-03-31 04:56:00